Regional Weather Roundup
Issued by NWS

Home | Current Version | Previous Version | Text Only | Print | Product List | Glossary Off
Versions: 1 2 3 4 5 6 7 8 9 10 11 12 13 14 15 16 17 18 19 20 21 22 23 24 25 26 27 28 29 30 31 32 33 34 35 36 37 38 39 40 41 42 43 44 45 46 47 48 49 50

309
ASUS43 KDTX 270101
RWRMI
MICHIGAN HOURLY REGIONAL WEATHER ROUNDUP
NATIONAL WEATHER SERVICE DETROIT/PONTIAC MI
900 PM EDT WED APR 26 2017

NOTE: "FAIR" INDICATES FEW OR NO CLOUDS BELOW 12,000 FEET WITH NO
SIGNIFICANT WEATHER AND/OR OBSTRUCTION TO VISIBILITY.

MIZ047>049-052>055-059>063-066>070-074>076-081>083-270200-
SOUTHEAST LOWER MICHIGAN

CITY           SKY/WX    TMP DP  RH WIND       PRES   REMARKS
ADRIAN         MOCLDY    74  59  59 S6        29.53R
ALMA           CLOUDY    71  55  56 W3        29.50S
ANN ARBOR      CLOUDY    77  58  51 SE7       29.52R
BAD AXE        CLEAR     70  56  61 SE10G17   29.53S
CARO           CLOUDY    70  57  61 SE13G18   29.50S
DETROIT CITY   PTCLDY    66  54  65 E8        29.55S
DETROIT        MOCLDY    69  53  56 SE8       29.54S
FLINT          PTCLDY    72  57  59 SE12      29.51R
GROSSE ILE     CLEAR     66  53  61 SE5       29.53R
HILLSDALE      MOCLDY    73  55  53 CALM      29.52S
HOWELL         CLOUDY    75  53  46 S5        29.51R

CITY           SKY/WX    TMP DP  RH WIND       PRES   REMARKS
JACKSON        PTCLDY    75  56  51 S6        29.51S
LAMBERTVILLE   PTCLDY    78  57  48 S8        29.53R
LANSING        CLOUDY    71  56  58 NW5       29.52R
LAPEER         FAIR      68  54  60 S8        29.54S
MASON          CLOUDY    73  59  61 W6        29.51S
MONROE         CLOUDY    65  55  71 E3        29.53R
MT. CLEMENS    MOCLDY    63  56  78 NE6       29.56R
PONTIAC        PTCLDY    68  55  63 SE9       29.53S
PORT HOPE        N/A     66  55  67 SE9       29.52R
PORT HURON     CLEAR     66  54  63 SE8       29.57F
TRI CITIES     CLOUDY    72  62  71 W7        29.50R
MIDLAND        FAIR      73  57  56 W3        29.49S
TROY           CLEAR     69  52  55 E6        29.57R
SAGINAW HB     CLOUDY    77  52  41 SW7G17    29.50R
$$
MIZ043>046-050>051-056>058-064>065-071>073-077>080-270200-
SOUTHWEST LOWER MICHIGAN

CITY           SKY/WX    TMP DP  RH WIND       PRES   REMARKS
BATTLE CREEK   MOCLDY    70  56  61 NW6       29.52S
BENTON HARBOR  CLOUDY    68  53  58 SE6       29.46F
BIG RAPIDS     MOCLDY    68  51  55 SW7       29.49S
COLDWATER      CLOUDY    70  55  59 N3        29.52R
FREMONT        MOCLDY    65  52  62 CALM      29.48S
HOLLAND        CLOUDY    65  57  75 SE3       29.48F
GRAND RAPIDS   MOCLDY    69  56  62 W3        29.49F
IONIA          MOCLDY    69  53  57 W6        29.50S
KALAMAZOO      CLOUDY    71  53  52 W5        29.51S
LUDINGTON      CLOUDY    63  56  79 SE3       29.46S
MARSHALL       CLOUDY    71  56  59 CALM      29.51S
MOUNT PLEASANT PTCLDY    71  53  52 SW6       29.49S
MUSKEGON       MOCLDY    65  54  67 SE3       29.47F
SOUTH HAVEN    CLOUDY    66  55  68 E5        29.47F
$$
MIZ016>042-270200-
NORTHERN LOWER MICHIGAN

CITY           SKY/WX    TMP DP  RH WIND       PRES   REMARKS
ALPENA         CLOUDY    65  56  72 SE14      29.49S
BEAVER ISLAND  CLEAR     58  56  93 SW9       29.46S
BELLAIRE       CLEAR     66  54  63 CALM      29.47S
CADILLAC       CLEAR     65  52  64 SW8       29.49S
CHARLEVOIX     CLEAR     60  53  77 E3        29.49S
FRANKFORT      CLOUDY    65  56  74 S6        29.45S
GAYLORD        CLEAR     71  53  52 W8        29.49R
GRAYLING       CLEAR     70  54  56 SW7       29.49S
HARBOR SPRINGS CLEAR     53  53  99 CALM      29.48S
HOUGHTON LAKE  CLEAR     69  53  56 SW8       29.49S
MANISTEE       CLOUDY    66  57  72 SE6       29.45S
OSCODA         PTCLDY    67  54  62 CALM      29.51R
PELLSTON       CLEAR     58  54  86 NE5       29.49R
ROGERS CITY    CLOUDY    65  55  69 S3        29.49S
TRAVERSE CITY  PTCLDY    68  54  60 CALM      29.45S
$$
MIZ007>008-015-270200-
EASTERN UPPER MICHIGAN

CITY           SKY/WX    TMP DP  RH WIND       PRES   REMARKS
KINROSS        CLOUDY    52  50  93 E14       29.50S
MACKINAC ISLAN CLEAR     42  42 100 E8        29.50S FOG
NEWBERRY       FOG       52  51  97 S14       29.46R VSB 1/2
S. S. MARIE    CLOUDY    54  50  86 E8        29.50S
MUNISING         N/A     41  41 100 NW9       29.43R
$$
MIZ004>006-011>014-085-270200-
CENTRAL UPPER MICHIGAN

CITY           SKY/WX    TMP DP  RH WIND       PRES   REMARKS
MANISTIQUE     FOG       42  42  98 S3        29.44F VSB<1/4
ESCANABA       CLOUDY    47  47 100 SE3       29.41S FOG
MENOMINEE      CLEAR     63  57  81 SW8       29.40R
SAWYER-GWINN   FOG       41  41 100 E6        29.41R VSB 1/4
$$
MIZ001>003-009>011-084-270200-
WESTERN UPPER MICHIGAN

CITY           SKY/WX    TMP DP  RH WIND       PRES   REMARKS
IRON MOUNTAIN  CLOUDY    44  40  85 NW10      29.42R
HOUGHTON       CLOUDY    33  30  88 N12       29.46R FOG     WCI  24
COPPER HARBOR    N/A     35  34  96 NE18      29.47R WCI  24
IRONWOOD       LGT SNOW  30  28  92 N13       29.54F VSB 1   WCI  20
$$

ABBREVIATIONS USED IN REMARKS
   TC - TEMPERATURE IN CELSIUS
  WCI - WIND CHILL INDEX
   HX - HEAT INDEX
  VSB - VISIBILITY





USA.gov is the U.S. government's official web portal to all federal, state and local government web resources and services.